星链-30356 (STARLINK-30356 )

导读 | 星芒AI

STARLINK-30356 是 SpaceX 星链计划中的一颗低轨通信卫星,属于第 11 批星链卫星(Batch 11)。该卫星于 2023 年 9 月 28 日由猎鹰 9 号火箭从美国卡纳维拉尔角发射升空,部署在约 550 公里的轨道高度。作为星链星座的一部分,它旨在为全球用户提供高速互联网服务,支持偏远地区的网络接入。该卫星采用 SpaceX 自主设计的 v1.5 代星链卫星平台,具备激光通信和自主变轨能力,有助于提升星座整体性能与稳定性。

基本信息
目录编号:
57748
目录名称:
STARLINK-30356
国际标识:
2023-131S
轨道中心:
EARTH
卫星名称:
星链-30356
卫星全名:
星链-30356 (STARLINK-30356 )
卫星状态:
在轨 (已飞行790 天)
发射日期:
2023-09-01 UTC
国别 :
美国 (US)
星等 :
--
轨道信息
数据来源 国际轨道数据
星历时间: 2025-10-30T07:26:24+0800
19小时前
查看轨道信息
半长轴: 6937.214km
偏心率: 0.0001032
轨道倾角: 43.003°
近地点辐角 272.465°
升交点赤经 161.867°
平近点角 87.607°
近地点: 558.363km
远地点: 559.795km
周期: 95.838分钟
每日圈数: 15.02537
详细信息
固有亮度:
5
最大亮度:
0.3
卫星平台:
Starlink v2.0 mini
覆盖范围:
全球
运营商:
太空探索技术公司
运营商所在国:
美国
制造商(研发单位):
太空探索技术公司
制造商所在国:
美国
使用方式:
暂无
卫星简介
星链(Starlink)计划是由太空探索技术公司(SpaceX)提出的一个巨型低轨卫星互联网星座项目,计划在2019年至2024年间在太空搭建由约1.2万颗卫星组成的“星链”网络,其中1584颗将部署在地球上空550千米处的近地轨道,并从2020年开始工作。该卫星仍在工作。
2D轨道图
3D轨道图
轨道高度分析图
轨道倾角分析图
轨道综合分析图
查看轨道综合分析图